Weather History for KIKV - July, 2013

Change the Weather History Date:

Thursday, July 4, 2013

  Actual Average (KDSM) Record (KDSM)
Temperature  
Mean Temperature 72 °F 76 °F  
Max Temperature 84 °F 86 °F 109 °F (1936)
Min Temperature 59 °F 66 °F 48 °F (1967)
Degree Days  
Heating Degree Days 0 0  
Month to date heating degree days 0  
Since 1 June heating degree days 17  
Since 1 July heating degree days 0  
Cooling Degree Days 6 11  
Month to date cooling degree days 44  
Year to date cooling degree days 341  
Since 1 June cooling degree days 265  
Growing Degree Days 22 (Base 50)    
Moisture  
Dew Point 60 °F    
Average Humidity 66    
Maximum Humidity 100    
Minimum Humidity 39    
Precipitation  
Precipitation 0.00 in 0.16 in 1.20 in (1928)
Month to date precipitation 0.62  
Year to date precipitation 18.74  
Snow  
Snow 0.00 in 0.00 in - ()
Month to date snowfall 0.0  
Since 1 June snowfall 0.0  
Since 1 July snowfall 0.0  
Snow Depth -    
Sea Level Pressure  
Sea Level Pressure 30.00 in    
Wind  
Wind Speed 6 mph (SSE)    
Max Wind Speed 16 mph    
Max Gust Speed 23 mph    
Visibility 10 miles    
Events      
T = Trace of Precipitation, MM = Missing Value Source: NWS Daily Summary

Daily Weather History Graph

Daily Weather History Graph

Search for Another Location

Airport or City:

Trip Planner

Search our weather history database for the weather conditions in past years. The results will help you decide how hot, cold, wet, or windy it might be!

Date:

Astronomy

Jul. 04, 2013 Rise Set
Actual Time 5:45 AM CDT 8:51 PM CDT
Civil Twilight 5:11 AM CDT 9:25 PM CDT
Nautical Twilight 4:28 AM CDT 10:08 PM CDT
Astronomical Twilight 3:36 AM CDT 11:00 PM CDT
Moon 3:03 AM CDT (7/4) 5:56 PM CDT (7/4)
Length of Visible Light 16h 14m
Length of Day
15h 06m
Waning Crescent, 11% of the Moon is Illuminated
Jul 4
Waning Crescent
Jul 8
New
Jul 15
First Quarter
Jul 22
Full
Jul 29
Last Quarter

Hourly Weather History & Observations

Time (CDT) Temp. Heat Index Dew Point Humidity Pressure Visibility Wind Dir Wind Speed Gust Speed Precip Events Conditions
12:15 AM 66.2 °F - 60.8 °F 83% 30.02 in 10.0 mi SSE 4.6 mph - N/A   Clear
12:35 AM 66.2 °F - 60.8 °F 83% 30.02 in 10.0 mi SSE 4.6 mph - N/A   Clear
12:55 AM 66.2 °F - 60.8 °F 83% 30.02 in 10.0 mi SSE 4.6 mph - N/A   Partly Cloudy
1:15 AM 66.2 °F - 60.8 °F 83% 30.01 in 10.0 mi Calm Calm - N/A   Partly Cloudy
1:35 AM 66.2 °F - 60.8 °F 83% 30.01 in 10.0 mi SSE 3.5 mph - N/A   Partly Cloudy
1:55 AM 66.2 °F - 60.8 °F 83% 30.01 in 10.0 mi South 6.9 mph - N/A   Partly Cloudy
2:15 AM 64.4 °F - 60.8 °F 88% 30.01 in 10.0 mi SSE 6.9 mph - N/A   Clear
2:35 AM 64.4 °F - 60.8 °F 88% 30.00 in 10.0 mi SSE 4.6 mph - N/A   Clear
2:55 AM 64.4 °F - 60.8 °F 88% 30.01 in 10.0 mi SSE 4.6 mph - N/A   Clear
3:15 AM 64.4 °F - 60.8 °F 88% 30.01 in 10.0 mi South 4.6 mph - N/A   Clear
3:35 AM 62.6 °F - 59.0 °F 88% 30.00 in 10.0 mi Calm Calm - N/A   Clear
3:55 AM 62.6 °F - 60.8 °F 94% 30.00 in 10.0 mi South 3.5 mph - N/A   Clear
4:15 AM 60.8 °F - 59.0 °F 94% 30.00 in 10.0 mi SSE 3.5 mph - N/A   Clear
4:35 AM 60.8 °F - 59.0 °F 94% 30.01 in 10.0 mi South 3.5 mph - N/A   Clear
4:55 AM 60.8 °F - 59.0 °F 94% 30.01 in 10.0 mi South 3.5 mph - N/A   Clear
5:15 AM 60.8 °F - 59.0 °F 94% 30.02 in 10.0 mi Calm Calm - N/A   Mostly Cloudy
5:35 AM 59.0 °F - 59.0 °F 100% 30.02 in 8.0 mi Calm Calm - N/A   Mostly Cloudy
5:55 AM 59.0 °F - 57.2 °F 94% 30.02 in 8.0 mi Calm Calm - N/A   Partly Cloudy
6:15 AM 59.0 °F - 59.0 °F 100% 30.03 in 8.0 mi Calm Calm - N/A   Partly Cloudy
6:35 AM 59.0 °F - 59.0 °F 100% 30.03 in 7.0 mi Calm Calm - N/A   Partly Cloudy
6:55 AM 60.8 °F - 60.8 °F 100% 30.03 in 9.0 mi Calm Calm - N/A   Clear
7:15 AM 62.6 °F - 60.8 °F 94% 30.04 in 10.0 mi SSE 5.8 mph - N/A   Clear
7:35 AM 64.4 °F - 60.8 °F 88% 30.04 in 10.0 mi SSE 5.8 mph - N/A   Partly Cloudy
7:55 AM 66.2 °F - 60.8 °F 83% 30.05 in 10.0 mi SSE 5.8 mph - N/A   Partly Cloudy
8:15 AM 66.2 °F - 60.8 °F 83% 30.04 in 10.0 mi Variable 4.6 mph - N/A   Clear
8:35 AM 69.8 °F - 59.0 °F 68% 30.04 in 10.0 mi South 5.8 mph - N/A   Clear
8:55 AM 69.8 °F - 59.0 °F 68% 30.04 in 10.0 mi South 5.8 mph - N/A   Clear
9:15 AM 71.6 °F - 59.0 °F 64% 30.04 in 10.0 mi South 8.1 mph - N/A   Clear
9:35 AM 71.6 °F - 59.0 °F 64% 30.04 in 10.0 mi SSE 6.9 mph - N/A   Clear
9:55 AM 73.4 °F - 59.0 °F 61% 30.03 in 10.0 mi SSE 5.8 mph 11.5 mph N/A   Clear
10:15 AM 75.2 °F - 60.8 °F 61% 30.04 in 10.0 mi SSE 8.1 mph - N/A   Clear
10:35 AM 75.2 °F - 60.8 °F 61% 30.04 in 10.0 mi South 8.1 mph - N/A   Clear
10:55 AM 77.0 °F - 60.8 °F 57% 30.04 in 10.0 mi SSW 9.2 mph - N/A   Clear
11:15 AM 77.0 °F - 60.8 °F 57% 30.03 in 10.0 mi South 8.1 mph - N/A   Clear
11:35 AM 78.8 °F - 60.8 °F 54% 30.03 in 10.0 mi South 11.5 mph - N/A   Clear
11:55 AM 78.8 °F - 60.8 °F 54% 30.03 in 10.0 mi South 5.8 mph 12.7 mph N/A   Clear
12:15 PM 80.6 °F 81.5 °F 60.8 °F 51% 30.02 in 10.0 mi SSE 5.8 mph - N/A   Clear
12:35 PM 80.6 °F 81.5 °F 60.8 °F 51% 30.02 in 10.0 mi South 6.9 mph 13.8 mph N/A   Clear
12:55 PM 82.4 °F 82.9 °F 60.8 °F 48% 30.02 in 10.0 mi SSW 11.5 mph - N/A   Clear
1:15 PM 82.4 °F 82.5 °F 59.0 °F 45% 30.01 in 10.0 mi South 12.7 mph - N/A   Clear
1:35 PM 82.4 °F 82.5 °F 59.0 °F 45% 30.01 in 10.0 mi SSE 10.4 mph - N/A   Partly Cloudy
1:55 PM 82.4 °F 81.7 °F 55.4 °F 39% 30.01 in 10.0 mi South 10.4 mph 19.6 mph N/A   Scattered Clouds
2:15 PM 82.4 °F 82.5 °F 59.0 °F 45% 30.00 in 10.0 mi SSE 12.7 mph 18.4 mph N/A   Partly Cloudy
2:35 PM 82.4 °F 82.5 °F 59.0 °F 45% 30.00 in 10.0 mi South 9.2 mph 18.4 mph N/A   Partly Cloudy
2:55 PM 84.2 °F 83.8 °F 59.0 °F 42% 29.99 in 10.0 mi SSE 10.4 mph 21.9 mph N/A   Scattered Clouds
3:15 PM 84.2 °F 83.8 °F 59.0 °F 42% 29.99 in 10.0 mi SE 15.0 mph - N/A   Scattered Clouds
3:35 PM 84.2 °F 83.5 °F 57.2 °F 40% 29.99 in 10.0 mi South 12.7 mph 23.0 mph N/A   Scattered Clouds
3:55 PM 84.2 °F 83.8 °F 59.0 °F 42% 29.99 in 10.0 mi SSE 10.4 mph 17.3 mph N/A   Partly Cloudy
4:15 PM 82.4 °F 82.0 °F 57.2 °F 42% 29.99 in 10.0 mi South 11.5 mph 18.4 mph N/A   Partly Cloudy
4:35 PM 84.2 °F 83.8 °F 59.0 °F 42% 29.99 in 10.0 mi South 10.4 mph - N/A   Partly Cloudy
4:55 PM 84.2 °F 83.5 °F 57.2 °F 40% 29.98 in 10.0 mi South 11.5 mph - N/A   Clear
5:15 PM 84.2 °F 83.5 °F 57.2 °F 40% 29.98 in - South 16.1 mph - N/A   Clear
5:35 PM 84.2 °F 83.8 °F 59.0 °F 42% 29.97 in 10.0 mi SSE 15.0 mph - N/A   Partly Cloudy
5:55 PM 82.4 °F 82.5 °F 59.0 °F 45% 29.97 in 10.0 mi South 11.5 mph - N/A   Partly Cloudy
6:15 PM 82.4 °F 82.0 °F 57.2 °F 42% 29.96 in 10.0 mi SSE 13.8 mph - N/A   Partly Cloudy
6:35 PM 82.4 °F 82.0 °F 57.2 °F 42% 29.96 in 10.0 mi South 11.5 mph 17.3 mph N/A   Partly Cloudy
6:55 PM 82.4 °F 82.0 °F 57.2 °F 42% 29.96 in 10.0 mi South 9.2 mph 16.1 mph N/A   Clear
7:15 PM 82.4 °F 82.5 °F 59.0 °F 45% 29.96 in 10.0 mi SSE 9.2 mph - N/A   Clear
7:35 PM 80.6 °F 80.8 °F 57.2 °F 45% 29.96 in 10.0 mi SSE 8.1 mph 13.8 mph N/A   Clear
7:55 PM 78.8 °F - 59.0 °F 51% 29.96 in 10.0 mi SSE 8.1 mph - N/A   Clear
8:15 PM 78.8 °F - 59.0 °F 51% 29.96 in 10.0 mi SSE 5.8 mph - N/A   Clear
8:35 PM 75.2 °F - 60.8 °F 61% 29.95 in 10.0 mi SE 4.6 mph - N/A   Clear
8:55 PM 73.4 °F - 60.8 °F 65% 29.95 in 10.0 mi SE 4.6 mph - N/A   Clear
9:15 PM 73.4 °F - 60.8 °F 65% 29.96 in 10.0 mi SE 5.8 mph - N/A   Clear
9:35 PM 73.4 °F - 60.8 °F 65% 29.96 in 10.0 mi SSE 3.5 mph - N/A   Clear
9:55 PM 71.6 °F - 60.8 °F 69% 29.97 in 10.0 mi Calm Calm - N/A   Clear
10:15 PM 71.6 °F - 60.8 °F 69% 29.98 in 10.0 mi Calm Calm - N/A   Clear
10:35 PM 71.6 °F - 60.8 °F 69% 29.98 in 10.0 mi Calm Calm - N/A   Clear
10:55 PM 69.8 °F - 60.8 °F 73% 29.98 in 10.0 mi Calm Calm - N/A   Clear
11:15 PM 69.8 °F - 60.8 °F 73% 29.98 in 10.0 mi Calm Calm - N/A   Clear
11:35 PM 69.8 °F - 60.8 °F 73% 29.98 in 10.0 mi South 3.5 mph - N/A   Clear
11:55 PM 69.8 °F - 59.0 °F 68% 29.98 in 10.0 mi South 4.6 mph - N/A   Clear